TimeMDT,TemperatureF,Dew PointF,Humidity,Sea Level PressureIn,VisibilityMPH,Wind Direction,Wind SpeedMPH,Gust SpeedMPH,PrecipitationIn,Events,Conditions,WindDirDegrees,DateUTC
12:00 AM,26.6,-9999,N/A,30.33,10.0,Calm,Calm,-,N/A,,Clear,0,2012-10-04 06:00:00
12:20 AM,24.8,-9999,N/A,30.33,10.0,Calm,Calm,-,N/A,,Clear,0,2012-10-04 06:20:00
12:40 AM,23.0,-9999,N/A,30.32,10.0,Calm,Calm,-,N/A,,Clear,0,2012-10-04 06:40:00
1:00 AM,23.0,-9999,N/A,30.32,10.0,Calm,Calm,-,N/A,,Clear,0,2012-10-04 07:00:00
1:20 AM,19.4,-9999,N/A,30.32,10.0,Calm,Calm,-,N/A,,Clear,0,2012-10-04 07:20:00
1:40 AM,19.4,-9999,N/A,30.31,10.0,East,3.5,-,N/A,,Clear,100,2012-10-04 07:40:00
2:00 AM,19.4,-9999,N/A,30.31,10.0,Calm,Calm,-,N/A,,Clear,0,2012-10-04 08:00:00
2:20 AM,17.6,-9999,N/A,30.31,10.0,NE,5.8,-,N/A,,Clear,50,2012-10-04 08:20:00
2:40 AM,23.0,-9999,N/A,30.30,10.0,Calm,Calm,-,N/A,,Clear,0,2012-10-04 08:40:00
3:00 AM,17.6,-9999,N/A,30.29,10.0,Calm,Calm,-,N/A,,Clear,0,2012-10-04 09:00:00
3:20 AM,17.6,-9999,N/A,30.28,10.0,Calm,Calm,-,N/A,,Clear,0,2012-10-04 09:20:00
3:40 AM,15.8,-9999,N/A,30.28,10.0,South,3.5,-,N/A,,Clear,190,2012-10-04 09:40:00
4:00 AM,17.6,-9999,N/A,30.28,10.0,Calm,Calm,-,N/A,,Mostly Cloudy,0,2012-10-04 10:00:00
4:20 AM,17.6,-9999,N/A,30.27,10.0,Calm,Calm,-,N/A,,Mostly Cloudy,0,2012-10-04 10:20:00
4:40 AM,15.8,-9999,N/A,30.27,10.0,Calm,Calm,-,N/A,,Mostly Cloudy,0,2012-10-04 10:40:00
5:00 AM,15.8,-9999,N/A,30.27,10.0,Calm,Calm,-,N/A,,Scattered Clouds,0,2012-10-04 11:00:00
5:20 AM,15.8,-9999,N/A,30.27,10.0,Calm,Calm,-,N/A,,Scattered Clouds,0,2012-10-04 11:20:00
5:40 AM,14.0,-9999,N/A,30.27,10.0,Calm,Calm,-,N/A,,Partly Cloudy,0,2012-10-04 11:40:00
6:00 AM,14.0,-9999,N/A,30.26,10.0,Calm,Calm,-,N/A,,Clear,0,2012-10-04 12:00:00
6:20 AM,12.2,-9999,N/A,30.26,10.0,Calm,Calm,-,N/A,,Clear,0,2012-10-04 12:20:00
6:40 AM,12.2,-9999,N/A,30.26,10.0,Calm,Calm,-,N/A,,Clear,0,2012-10-04 12:40:00
7:00 AM,10.4,-9999,N/A,30.26,10.0,Calm,Calm,-,N/A,,Clear,0,2012-10-04 13:00:00
7:20 AM,10.4,-9999,N/A,30.26,10.0,Calm,Calm,-,N/A,,Partly Cloudy,0,2012-10-04 13:20:00
7:40 AM,10.4,-9999,N/A,30.26,10.0,Calm,Calm,-,N/A,,Clear,0,2012-10-04 13:40:00
8:00 AM,12.2,-9999,N/A,30.26,10.0,Calm,Calm,-,N/A,,Clear,0,2012-10-04 14:00:00
8:20 AM,15.8,-9999,N/A,30.26,10.0,Calm,Calm,-,N/A,,Clear,0,2012-10-04 14:20:00
8:40 AM,19.4,-9999,N/A,30.26,10.0,Calm,Calm,-,N/A,,Clear,0,2012-10-04 14:40:00
9:00 AM,23.0,-9999,N/A,30.26,10.0,Calm,Calm,-,N/A,,Clear,0,2012-10-04 15:00:00
9:20 AM,24.8,-9999,N/A,30.25,10.0,Calm,Calm,-,N/A,,Clear,0,2012-10-04 15:20:00
9:40 AM,26.6,-9999,N/A,30.25,10.0,Calm,Calm,-,N/A,,Clear,0,2012-10-04 15:40:00
10:00 AM,28.4,-9999,N/A,30.25,10.0,Calm,Calm,-,N/A,,Clear,0,2012-10-04 16:00:00
10:20 AM,30.2,-9999,N/A,30.24,10.0,East,3.5,-,N/A,,Clear,90,2012-10-04 16:20:00
10:40 AM,32.0,-9999,N/A,30.24,10.0,ENE,3.5,-,N/A,,Clear,60,2012-10-04 16:40:00
11:00 AM,32.0,-9999,N/A,30.23,10.0,Calm,Calm,-,N/A,,Clear,0,2012-10-04 17:00:00
11:20 AM,33.8,-9999,N/A,30.22,10.0,Calm,Calm,-,N/A,,Clear,0,2012-10-04 17:20:00
11:40 AM,35.6,-9999,N/A,30.21,10.0,SSE,3.5,-,N/A,,Clear,160,2012-10-04 17:40:00
12:20 PM,37.4,-9999,N/A,30.20,10.0,Calm,Calm,-,N/A,,Clear,0,2012-10-04 18:20:00
12:40 PM,37.4,-9999,N/A,30.19,10.0,ESE,3.5,-,N/A,,Clear,120,2012-10-04 18:40:00
1:00 PM,39.2,-9999,N/A,30.19,10.0,Calm,Calm,-,N/A,,Clear,0,2012-10-04 19:00:00
1:25 PM,39.2,-9999,N/A,30.18,10.0,SSE,3.5,-,N/A,,Clear,160,2012-10-04 19:25:00
1:40 PM,39.2,-9999,N/A,30.17,10.0,NW,4.6,-,N/A,,Clear,320,2012-10-04 19:40:00
2:00 PM,39.2,-9999,N/A,30.17,10.0,Calm,Calm,-,N/A,,Clear,0,2012-10-04 20:00:00
2:20 PM,41.0,-9999,N/A,30.17,10.0,West,4.6,-,N/A,,Clear,260,2012-10-04 20:20:00
2:40 PM,41.0,-9999,N/A,30.16,10.0,West,3.5,-,N/A,,Clear,280,2012-10-04 20:40:00
3:00 PM,41.0,-9999,N/A,30.15,10.0,Calm,Calm,-,N/A,,Clear,0,2012-10-04 21:00:00
3:20 PM,41.0,-9999,N/A,30.15,10.0,WNW,4.6,-,N/A,,Clear,290,2012-10-04 21:20:00
3:40 PM,41.0,-9999,N/A,30.15,10.0,NW,5.8,-,N/A,,Clear,310,2012-10-04 21:40:00
4:00 PM,41.0,-9999,N/A,30.15,10.0,WNW,4.6,-,N/A,,Scattered Clouds,300,2012-10-04 22:00:00
4:20 PM,41.0,-9999,N/A,30.15,10.0,NW,6.9,-,N/A,,Partly Cloudy,320,2012-10-04 22:20:00
4:40 PM,41.0,-9999,N/A,30.16,10.0,NNW,5.8,-,N/A,,Partly Cloudy,330,2012-10-04 22:40:00
5:00 PM,41.0,-9999,N/A,30.16,10.0,WNW,5.8,-,N/A,,Clear,300,2012-10-04 23:00:00
5:20 PM,41.0,-9999,N/A,30.16,10.0,NW,6.9,-,N/A,,Partly Cloudy,310,2012-10-04 23:20:00
5:40 PM,41.0,-9999,N/A,30.17,10.0,NW,6.9,-,N/A,,Scattered Clouds,320,2012-10-04 23:40:00
6:00 PM,39.2,-9999,N/A,30.17,10.0,NNE,6.9,-,N/A,,Mostly Cloudy,30,2012-10-05 00:00:00
6:20 PM,39.2,-9999,N/A,30.18,10.0,NE,6.9,-,N/A,,Mostly Cloudy,40,2012-10-05 00:20:00
6:40 PM,37.4,-9999,N/A,30.18,10.0,NNE,6.9,-,N/A,,Mostly Cloudy,20,2012-10-05 00:40:00
7:00 PM,35.6,-9999,N/A,30.18,10.0,NNE,6.9,-,N/A,,Scattered Clouds,20,2012-10-05 01:00:00
7:20 PM,33.8,-9999,N/A,30.19,10.0,NNE,8.1,16.1,N/A,,Mostly Cloudy,20,2012-10-05 01:20:00
7:40 PM,32.0,-9999,N/A,30.20,10.0,NE,13.8,-,N/A,,Mostly Cloudy,40,2012-10-05 01:40:00
8:00 PM,32.0,-9999,N/A,30.20,10.0,NE,11.5,17.3,N/A,,Mostly Cloudy,40,2012-10-05 02:00:00
8:20 PM,32.0,-9999,N/A,30.21,10.0,NE,9.2,-,N/A,,Partly Cloudy,40,2012-10-05 02:20:00
8:40 PM,32.0,-9999,N/A,30.22,10.0,NNE,8.1,-,N/A,,Partly Cloudy,30,2012-10-05 02:40:00
9:00 PM,30.2,-9999,N/A,30.22,10.0,NNE,8.1,-,N/A,,Partly Cloudy,30,2012-10-05 03:00:00
9:20 PM,30.2,-9999,N/A,30.22,10.0,NE,9.2,-,N/A,,Clear,50,2012-10-05 03:20:00
9:40 PM,28.4,-9999,N/A,30.23,10.0,NNE,5.8,-,N/A,,Clear,30,2012-10-05 03:40:00
10:00 PM,28.4,-9999,N/A,30.23,10.0,NNE,5.8,-,N/A,,Clear,20,2012-10-05 04:00:00
10:20 PM,28.4,-9999,N/A,30.23,10.0,NNE,8.1,-,N/A,,Clear,30,2012-10-05 04:20:00
10:40 PM,26.6,-9999,N/A,30.23,10.0,NE,5.8,-,N/A,,Clear,40,2012-10-05 04:40:00
11:00 PM,26.6,-9999,N/A,30.23,10.0,NNE,5.8,-,N/A,,Clear,20,2012-10-05 05:00:00
11:20 PM,26.6,-9999,N/A,30.23,10.0,North,5.8,-,N/A,,Clear,10,2012-10-05 05:20:00
11:40 PM,26.6,-9999,N/A,30.23,10.0,NNE,3.5,-,N/A,,Clear,30,2012-10-05 05:40:00